Вернуться в каталог

STARLINK-5782

АктивенСвязьVLEO
NORAD 56034·PAYLOAD·🇺🇸 United States

Запущен Mar 24, 2023 с Cape Canaveral Space Force Station

Loading…

Ближайшие Пролёты (ближайшие 24 часа)

TLE

СвежийSource: CelesTrak SupGP

Эпоха: Sep 15, 2026, 02:35 UTC

1 56034C 23042BA  26258.10812500 -.00053206  00000+0 -19270-2 0  2585
2 56034  43.0009  55.7295 0001838 266.4122  23.7725 15.27606391    19

Отслеживайте STARLINK-5782 в реальном времени с AllMySat

Download on the App Store